Regional Weather Roundup
Issued by NWS Albany, NY

Home | Current Version | Previous Version | Text Only | Print | Product List | Glossary On
Versions: 1 2 3 4 5 6 7 8 9 10 11 12 13 14 15 16 17 18 19 20 21 22 23 24 25 26 27
000
ASUS41 KALY 221010
RWRALY

NEW YORK STATE HOURLY WEATHER ROUNDUP
NATIONAL WEATHER SERVICE ALBANY NY
600 AM EDT SUN OCT 22 2017

NOTE: "FAIR" INDICATES FEW OR NO CLOUDS BELOW 12,000 FEET WITH NO
SIGNIFICANT WEATHER AND/OR NO OBSTRUCTIONS TO VISIBILITY.

NYZ032-033-038>043-046>054-057>066-NYZ062>081-082-084-221100-
EAST


CITY           SKY/WX    TMP DP  RH WIND       PRES   REMARKS
ALBANY         CLOUDY    43  40  89 CALM      30.39R
GLENS FALLS    CLEAR     36  34  92 CALM      30.38R
POUGHKEEPSIE   CLEAR     41  39  93 CALM      30.37R
NEWBURGH       CLEAR     45  43  93 CALM      30.38R
MONTGOMERY     CLEAR     43  41  93 S3        30.37R
WHITE PLAINS   CLEAR     47  44  90 NW6       30.37R
ISLIP          PTCLDY    48  47  96 NE3       30.36S
NEW YORK CITY  CLEAR     59  53  80 NE3       30.37R
CENTRAL PARK   CLEAR     59  48  67 CALM      30.40R
$$

NYZ005>009-017-018-044>046-055-056-221100-
CENTRAL


CITY           SKY/WX    TMP DP  RH WIND       PRES   REMARKS
FULTON         PTCLDY    52  48  86 SE3       30.31R
SYRACUSE       PTCLDY    45  42  89 E3        30.32R
ROME           CLEAR     42  40  92 SE5       30.36S
ELMIRA         CLEAR     39  39 100 CALM      30.35R FOG
BINGHAMTON     CLEAR     51  39  63 S6        30.36R
MONTICELLO     CLEAR     43  40  89 CALM      30.40R
$$

NYZ026>034-041>043-087-221100-
NORTH


CITY           SKY/WX    TMP DP  RH WIND       PRES   REMARKS
WATERTOWN      PTCLDY    42  41  96 CALM      30.30R
FORT DRUM      NOT AVBL
OGDENSBURG     FAIR      42  41  97 CALM      30.30S
MASSENA        PTCLDY    44  43  96 CALM      30.32S
SARANAC LAKE   CLEAR     29  29 100 CALM      30.35S
PLATTSBURGH    PTCLDY    42  41  96 CALM      30.34R
$$

NYZ001>004-010>016-019>021-085-221100-
WEST


CITY           SKY/WX    TMP DP  RH WIND       PRES   REMARKS
NIAGARA FALLS  CLEAR     57  47  69 S6        30.26R
BUFFALO        MOCLDY    52  44  74 S5        30.28R
DUNKIRK        CLEAR     52  45  77 SE6       30.28R
JAMESTOWN      PTCLDY    52  44  74 S8        30.32R
WELLSVILLE     CLEAR     57  40  52 CALM      30.36R
ROCHESTER      PTCLDY    48  45  89 SW3       30.30R
PENN YAN       PTCLDY    53  44  71 S8        30.33R
$$

             KEY
       WCI = WIND CHILL INDEX
       VSB = VISIBILITY
       HX  = HEAT INDEX
$$




USA.gov is the U.S. government's official web portal to all federal, state and local government web resources and services.